7 * 24
多渠道服务支持
LATINSAT A是阿根廷于2002年12月20日08:00发射的通信卫星,作为阿根廷早期航天布局的重要组成,它主要服务拉丁美洲区域的通信传输业务,助力区域内广播电视、电信网络的互联互通。该卫星入轨后,填补了拉美本土自主通信卫星服务的部分空白,推动了阿根廷航天通信领域的发展,也为后续阿根廷ARSAT系列卫星的研发运营积累了关键技术经验。
阿根廷
(AR)
| 数据来源 | 国际轨道数据 |
| 星历时间: | 2026-09-12T06:20:01+0800 18小时前 查看轨道信息 |
| 半长轴: | 6989.85km |
| 偏心率: | 0.0047752 |
| 轨道倾角: | 64.554° |
| 近地点辐角 | 234.779° |
| 升交点赤经 | 52.228° |
| 平近点角 | 124.885° |
| 近地点: | 578.335km |
| 远地点: | 645.091km |
| 周期: | 96.931分钟 |
| 每日圈数: | 14.855971 |
| 事件ID | 空间交会对象 | 最接近时刻(TCA) | 交会距离 | 交会风险概率(CRP) | 交会风险指数(CRI) | 操作 |
|---|---|---|---|---|---|---|
| CDM_260912-173800-618002-761229 |
SCOUT B-1 R/B
(6180)
LATINSAT A
(27612) | 2026-09-12T 17:38:04+0000 |
0.762 km
远距离 | 6.60291E-5 中风险 | 0.71 | |
| CDM_260913-230502-761203-120225 |
LATINSAT A
(27612)
FENGYUN 1C DEB
(31202) | 2026-09-13T 23:05:45+0000 |
1.688 km
极远距离 | 4.496073E-6 低风险 | 0.48 | |
| CDM_260913-012502-761206-487027 |
LATINSAT A
(27612)
TRACERS 1
(64870) | 2026-09-13T 01:25:24+0000 |
2.095 km
极远距离 | 2.129518E-6 低风险 | 0.42 | |
| CDM_260913-080402-761203-944627 |
LATINSAT A
(27612)
UWE-3
(39446) | 2026-09-13T 08:04:31+0000 |
2.320 km
极远距离 | 2.027324E-6 低风险 | 0.41 | |
| CDM_260913-203802-761203-159826 |
LATINSAT A
(27612)
SKYMED 1
(31598) | 2026-09-13T 20:38:11+0000 |
1.977 km
极远距离 | 1.818007E-6 低风险 | 0.4 | |
| CDM_260914-085300-898002-761225 |
DELTA 1 DEB
(8980)
LATINSAT A
(27612) | 2026-09-14T 08:53:07+0000 |
2.623 km
极远距离 | 1.403948E-6 低风险 | 0.38 |